Flag for Germany Weather past 2 weeks in Buxtehude, Lower Saxony, Germany

46 °F

Passing clouds.

Feels Like: 39 °F
Forecast: 40 / 45 °F
Wind: 17 mph from West

Location: Hamburg-Fuhlsbuettel

Current Time: Nov 30, 2015 at 12:31:45 AM

Latest Report: Nov 29, 2015 at 11:20 PM

Visibility: N/A

Pressure: 29.47 "Hg

Humidity: 71%

Dew point: 37 °F

Location of BuxtehudeLocation

Historic Weather in Buxtehude — Graph


Buxtehude temperature yesterday

Maximum temperature yesterday: 52 °F (at 7:50 PM)
Minimum temperature yesterday: 41 °F (at 12:20 AM)
Average temperature yesterday: 46 °F

Past Weeks' High & Low Weather Summary

High57 °F (Nov 17, 11:50 PM)100% (Nov 15, 12:20 AM)30.15 "Hg (Nov 15, 12:20 AM)
Low30 °F (Nov 22, 2:20 AM)66% (Nov 24, 12:50 PM)29.30 "Hg (Nov 21, 1:20 AM)
Average43 °F89%29.69 "Hg
* Reported Nov 14 10:20 PM — Nov 29 10:50 PM, Buxtehude, Weather by CustomWeather, © 2015

Note: Actual official high and low records may vary slightly from our data, if they occured in-between our weather recording intervals... More about our weather records


Buxtehude weather history for previous 24 hours

Time TempWeatherWind HumidityBarometerVisibility
10:50 PM
Sun, Nov 29
46 °FPassing clouds.14 mph76%29.47 "HgN/A
10:20 PM46 °FPassing clouds.17 mph71%29.47 "HgN/A
9:50 PM48 °FPassing clouds.26 mph66%29.45 "HgN/A
9:20 PM50 °FPassing clouds.25 mph67%29.42 "HgN/A
8:50 PM50 °FPassing clouds.21 mph82%29.39 "HgN/A
8:20 PM48 °FRain showers. Passing clouds.14 mph94%29.39 "Hg2 mi
7:50 PM52 °FLight rain. Passing clouds.25 mph82%29.36 "HgN/A
7:20 PM50 °FLight rain. Passing clouds.26 mph88%29.39 "HgN/A
6:50 PM50 °FPassing clouds.24 mph88%29.42 "HgN/A
6:20 PM48 °FPassing clouds.23 mph94%29.45 "HgN/A
5:50 PM48 °FLight rain. Mostly cloudy.23 mph94%29.45 "HgN/A
5:20 PM46 °FLight rain. Overcast.20 mph93%29.47 "HgN/A
4:50 PM48 °FLight rain. Overcast.21 mph87%29.47 "HgN/A
4:20 PM48 °FLight rain. Overcast.18 mph87%29.50 "HgN/A
3:50 PM48 °FDrizzle. More clouds than sun.17 mph82%29.53 "HgN/A
3:20 PM48 °FPartly sunny.16 mph82%29.53 "HgN/A
2:50 PM48 °FPartly sunny.15 mph82%29.56 "HgN/A
2:20 PM48 °FPartly sunny.16 mph82%29.56 "HgN/A
1:50 PM48 °FLight rain. Partly sunny.16 mph82%29.56 "HgN/A
1:20 PM48 °FLight rain. Partly sunny.18 mph82%29.56 "HgN/A
12:50 PM48 °FLight rain. Partly sunny.17 mph87%29.56 "HgN/A
12:20 PM48 °FLight rain. Partly sunny.15 mph82%29.56 "HgN/A
11:50 AM48 °FLight rain. Partly sunny.16 mph82%29.59 "HgN/A
11:20 AM48 °FPartly sunny.17 mph82%29.59 "HgN/A
10:20 AM48 °FPartly sunny.17 mph82%29.59 "HgN/A
9:50 AM46 °FPartly sunny.18 mph87%29.59 "HgN/A
9:20 AM46 °FPartly sunny.18 mph87%29.59 "HgN/A
8:50 AM46 °FPartly sunny.20 mph87%29.56 "HgN/A
8:20 AM46 °FBroken clouds.17 mph87%29.56 "HgN/A
7:50 AM46 °FPartly cloudy.17 mph87%29.56 "HgN/A
7:20 AM46 °FPartly cloudy.16 mph87%29.56 "HgN/A
6:20 AM45 °FPassing clouds.17 mph93%29.56 "HgN/A
5:50 AM45 °FScattered showers. Passing clouds.20 mph93%29.56 "HgN/A
5:20 AM45 °FScattered showers. Partly cloudy.20 mph87%29.53 "HgN/A
4:50 AM45 °FSprinkles. Partly cloudy.23 mph87%29.56 "HgN/A
4:20 AM43 °FSprinkles. Partly cloudy.20 mph93%29.56 "HgN/A
3:50 AM43 °FSprinkles. Passing clouds.22 mph93%29.56 "HgN/A
3:20 AM41 °FLight rain. Passing clouds.22 mph93%29.56 "HgN/A
2:50 AM41 °FLight rain. Passing clouds.24 mph93%29.59 "HgN/A
2:20 AM41 °FLight rain. Passing clouds.24 mph93%29.59 "HgN/A
1:50 AM41 °FLight rain. Passing clouds.25 mph93%29.59 "HgN/A
1:20 AM41 °FLight rain. Passing clouds.22 mph87%29.59 "HgN/A
12:50 AM41 °FRain. Passing clouds.22 mph87%29.62 "HgN/A
12:20 AM41 °FLight rain. Passing clouds.20 mph87%29.65 "HgN/A
Weather by CustomWeather, © 2015

See weather overviewHow to use our weather pages